Weather History for CYUA - October, 2012

Change the Weather History Date:

Sunday, October 14, 2012

  Actual Average Record
Temperature  
Mean Temperature 10 °F -  
Max Temperature 17 °F 20 °F 39 °F (2013)
Min Temperature 3 °F 11 °F -7 °F (2004)
Degree Days  
Heating Degree Days 55    
Moisture  
Dew Point -    
Average Humidity    
Maximum Humidity    
Minimum Humidity    
Precipitation  
Precipitation 0.00 in - - ()
Sea Level Pressure  
Sea Level Pressure 29.56 in    
Wind  
Wind Speed 5 mph ()    
Max Wind Speed 8 mph    
Max Gust Speed -    
Visibility 9.0 miles    
Events      
Averages and records for this station are not official NWS values.
T = Trace of Precipitation, MM = Missing Value Source: Averaged Metar Reports

Daily Weather History Graph

Daily Weather History Graph

Search for Another Location

Airport or City:

Trip Planner

Search our weather history database for the weather conditions in past years. The results will help you decide how hot, cold, wet, or windy it might be!

Date:

Astronomy

Oct. 14, 2012 Rise Set
Actual Time 9:15 AM PDT 6:32 PM PDT
Civil Twilight 8:15 AM PDT 7:31 PM PDT
Nautical Twilight 7:08 AM PDT 8:38 PM PDT
Astronomical Twilight 5:58 AM PDT 9:47 PM PDT
Moon 8:23 AM PDT (10/14) 5:44 PM PDT (10/14)
Length of Visible Light 11h 15m
Length of Day
9h 16m
Waning Crescent, 1% of the Moon is Illuminated
Oct 14
Waning Crescent
Oct 15
New
Oct 21
First Quarter
Oct 29
Full
Nov 6
Last Quarter

Hourly Weather History & Observations

Time (PDT) Temp. Windchill Dew Point Humidity Pressure Visibility Wind Dir Wind Speed Gust Speed Precip Events Conditions
12:00 AM 14.0 °F 5.1 °F - N/A% 29.69 in 9.0 mi SSW 5.8 mph - N/A   Unknown
12:30 AM 10.4 °F 0.8 °F - N/A% 29.67 in 9.0 mi South 5.8 mph - N/A   Unknown
12:46 AM 10.4 °F 2.2 °F - N/A% 29.66 in 9.0 mi SSW 4.6 mph - N/A   Unknown
1:00 AM 10.4 °F 2.2 °F - N/A% 29.68 in 8.0 mi SSW 4.6 mph - N/A   Unknown
1:59 AM 6.8 °F -5.9 °F - N/A% 29.66 in 9.0 mi South 8.1 mph - N/A   Unknown
2:00 AM 7 °F - - % 29.68 in 9 mi South 8.1 mph - -  
2:00 AM 6.8 °F -5.9 °F - N/A% 29.68 in 9.0 mi South 8.1 mph - N/A   Unknown
3:00 AM 5.0 °F -5.6 °F - N/A% 29.67 in 9.0 mi South 5.8 mph - N/A   Unknown
4:00 AM 6.8 °F -5.9 °F - N/A% 29.66 in 9.0 mi SSE 8.1 mph - N/A   Unknown
5:00 AM 6 °F - - % 29.65 in 9 mi South 5.8 mph - -  
5:00 AM 6.8 °F -2.0 °F - N/A% 29.65 in 9.0 mi South 4.6 mph - N/A   Unknown
6:00 AM 6.8 °F -3.5 °F - N/A% 29.62 in 9.0 mi South 5.8 mph - N/A   Unknown
7:00 AM 3.2 °F -7.8 °F - N/A% 29.61 in 9.0 mi SSE 5.8 mph - N/A   Unknown
8:00 AM 9 °F - - % 29.59 in 9 mi SSE 6.9 mph - -  
8:00 AM 8.6 °F -1.3 °F - N/A% 29.59 in 9.0 mi SSE 5.8 mph - N/A   Unknown
9:00 AM 10.4 °F 0.8 °F - N/A% 29.57 in 9.0 mi SSE 5.8 mph - N/A   Unknown
10:00 AM 12.2 °F 2.9 °F - N/A% 29.56 in 9.0 mi SSE 5.8 mph - N/A   Unknown
11:00 AM 14 °F - - % 29.55 in 9 mi ESE 6.9 mph - -  
11:00 AM 14.0 °F 3.9 °F - N/A% 29.55 in 9.0 mi SSE 6.9 mph - N/A   Unknown
12:00 PM 12.2 °F 2.9 °F - N/A% 29.54 in 9.0 mi SSE 5.8 mph - N/A   Unknown
1:00 PM 14.0 °F 2.9 °F - N/A% 29.52 in 9.0 mi SSE 8.1 mph - N/A   Unknown
2:00 PM 15 °F - - % 29.51 in 9 mi SSE 3.5 mph - -  
2:00 PM 14.0 °F 8.2 °F - N/A% 29.51 in 9.0 mi SSE 3.5 mph - N/A   Unknown
3:00 PM 14.0 °F 3.9 °F - N/A% 29.50 in 9.0 mi South 6.9 mph - N/A   Unknown
4:00 PM 17.6 °F 9.3 °F - N/A% 29.49 in 9.0 mi South 5.8 mph - N/A   Unknown
5:00 PM 16 °F - - % 29.48 in 9 mi SSE 8.1 mph - -  
5:00 PM 15.8 °F 6.1 °F - N/A% 29.48 in 9.0 mi SSE 6.9 mph - N/A   Unknown
6:00 PM 14.0 °F 6.5 °F - N/A% 29.47 in 9.0 mi South 4.6 mph - N/A   Unknown
7:00 PM 12.2 °F 2.9 °F - N/A% 29.46 in 9.0 mi SSE 5.8 mph - N/A   Unknown
8:00 PM 12 °F - - % 29.45 in 9 mi SSE 4.6 mph - -  
8:00 PM 12.2 °F 4.3 °F - N/A% 29.45 in 9.0 mi SSE 4.6 mph - N/A   Unknown
9:00 PM 12.2 °F 4.3 °F - N/A% 29.45 in 9.0 mi South 4.6 mph - N/A   Unknown
10:00 PM 15.8 °F 6.1 °F - N/A% 29.44 in 9.0 mi ESE 6.9 mph - N/A   Unknown
11:00 PM 12 °F - - % 29.43 in 9 mi South 3.5 mph - -